Location: Home
(42.5358°N, 72.7383°W)
Time: 01:33:29
(UTC-04:00)

DELTA 1 DEB - Pass Details

Date: 28 June 2022
Orbit: 600 x 774 km, 98.5° (Epoch: 16 August)

Event Time Altitude Azimuth Distance (km) Brightness Sun altitude
Exits shadow 23:15:55 29° 204° (SSW) 1,380 ? -20.4°
Maximum altitude 23:18:08 47° 260° (W) 1,006 ? -20.6°
Drops below altitude 10° 23:23:01 10° 335° (NNW) 2,279 ? -20.9°
Sets 23:25:22 0° 341° (NNW) 3,187 ? -21.1°
